Regional Weather Roundup
Issued by NWS Northern Indiana

Home | Current Version | Previous Version | Graphics & Text | Print | Product List | Glossary On
Versions: 1 2 3 4 5 6 7 8 9 10 11 12 13 14 15 16 17 18 19 20 21 22 23 24 25 26 27 28 29 30 31 32 33 34 35 36 37 38 39 40 41 42 43 44 45 46 47 48 49 50
000
ASUS43 KIWX 230710
RWRIWX

KIWX WEATHER ROUNDUP
NATIONAL WEATHER SERVICE NORTHERN INDIANA
300 AM EDT SAT AUG 23 2014

NOTE: "FAIR" INDICATES FEW OR NO CLOUDS BELOW 12,000 FEET WITH NO
SIGNIFICANT WEATHER AND/OR OBSTRUCTIONS TO VISIBILITY.

* THESE STATIONS ARE NOT UNDER NWS QUALITY CONTROL. THEY ALSO MAY NOT
  REPORT WEATHER SUCH AS PRECIPITATION OR FOG.

INZ001>027-230800-
NORTHERN INDIANA

CITY           SKY/WX    TMP DP  RH WIND       PRES   REMARKS
GARY*          PTCLDY    73  72  96 CALM      29.97S FOG
VALPARAISO     FOG       69  68  96 NE3       29.98F VSB 3/4
MICHIGAN CITY* FOG       70  70 100 CALM      29.98S VSB 3/4
LAPORTE*       FOG       68  68 100 CALM      29.98F VSB 1/2
KNOX*            N/A     68  66  93 CALM      29.97F VSB 1/4
SOUTH BEND     CLEAR     74  72  93 CALM      29.98F FOG
GOSHEN         CLEAR     75  73  93 SW5       29.98F FOG
MONTICELLO*    FOG       71  71 100 CALM      29.96F VSB 1/2
LOGANSPORT*    FOG       68  66  94 CALM      29.98F VSB 1/4
ROCHESTER*       N/A     72  72 100 CALM      29.99F FOG
WARSAW*        PTCLDY    72  72 100 SE3       29.99S FOG
ANGOLA*        CLOUDY    73  72  94 CALM      30.00S
FORT WAYNE     LGT RAIN  72  70  93 CALM      29.99F
HUNTINGTON*    PTCLDY    70  70 100 CALM      29.99S FOG
PERU/GRISSOM   CLEAR     72  72 100 CALM      29.98F
MARION*        MOCLDY    68  67  98 CALM      30.00S

$$
INZ028>050-230800-
CENTRAL INDIANA

CITY           SKY/WX    TMP DP  RH WIND       PRES   REMARKS
LAFAYETTE      FOG       69  69 100 CALM      29.96F VSB 1/4
KOKOMO*          N/A     70  66  88 CALM      29.98F VSB 3/4
MUNCIE*        CLEAR     70  68  93 CALM      30.00S
INDIANAPOLIS   CLEAR     73  70  90 N3        29.98F

$$
MIZ043>046-050>051-056>058-064>065-071>073-077>080-230800-
SOUTHWEST LOWER MICHIGAN

CITY           SKY/WX    TMP DP  RH WIND       PRES   REMARKS
BATTLE CREEK   PTCLDY    72  68  87 NE3       30.02S
BENTON HARBOR  CLEAR     70  69  97 NE3       29.97F FOG
COLDWATER*     CLOUDY    74  73  94 CALM      30.00S FOG
HILLSDALE*     PTCLDY    71  70  96 CALM      30.02S
HOLLAND        CLEAR     70  68  93 E5        30.00F
GRAND RAPIDS   MOCLDY    70  69  97 NE6       30.02S
KALAMAZOO      PTCLDY    70  69  97 CALM      30.00F FOG
STURGIS*       MOCLDY    70  70 100 CALM      29.99F FOG
THREE RIVERS*  CLOUDY    73  72  95 CALM      30.00F FOG

$$
OHZ001>008-015>018-024>025-230800-
NORTHWEST OHIO

CITY           SKY/WX    TMP DP  RH WIND       PRES   REMARKS
WAUSEON*       MOCLDY    68  68 100 NE5       30.00S FOG
DEFIANCE       CLEAR     72  69  90 CALM      30.00S FOG
FINDLAY        CLEAR     72  69  90 NE5       29.98F FOG
TOLEDO EXPRESS FOG       70  70 100 CALM      29.99S VSB 1
TOLEDO METCALF PTCLDY    73  69  87 NE5       30.00F
LIMA           PTCLDY    70  68  93 CALM      29.99F FOG

$$
&&


USA.gov is the U.S. government's official web portal to all federal, state and local government web resources and services.